Weather History for Orange, MA

Change the Weather History Date:

Saturday, July 27, 2013

  Actual Average Record
Temperature  
Mean Temperature 68 °F -  
Max Temperature 82 °F 78 °F 93 °F (2005)
Min Temperature 54 °F 56 °F 44 °F (2001)
Cooling Degree Days 2    
Growing Degree Days 18 (Base 50)    
Moisture  
Dew Point 59 °F    
Average Humidity 85    
Maximum Humidity 100    
Minimum Humidity 44    
Precipitation  
Precipitation 0.01 in - - ()
Sea Level Pressure  
Sea Level Pressure 30.04 in    
Wind  
Wind Speed 1 mph (South)    
Max Wind Speed 10 mph    
Max Gust Speed -    
Visibility 5 miles    
Events Fog    
Averages and records for this station are not official NWS values.
T = Trace of Precipitation, MM = Missing Value Source: NWS Daily Summary

Daily Weather History Graph

Daily Weather History Graph

Search for Another Location

Airport:

Trip Planner

Search our weather history database for the weather conditions in past years. The results will help you decide how hot, cold, wet, or windy it might be!

Date:

Astronomy

Jul. 27, 2013 Rise Set
Actual Time 5:36 AM EDT 8:14 PM EDT
Civil Twilight 5:03 AM EDT 8:46 PM EDT
Nautical Twilight 4:23 AM EDT 9:27 PM EDT
Astronomical Twilight 3:36 AM EDT 10:13 PM EDT
Moon 10:50 PM EDT (7/27) 11:22 AM EDT (7/27)
Length of Visible Light 15h 42m
Length of Day
14h 38m
Waning Gibbous, 71% of the Moon is Illuminated
Jul 27
Waning Gibbous
Jul 29
Last Quarter
Aug 6
New
Aug 14
First Quarter
Aug 20
Full

Hourly Weather History & Observations

Time (EDT) Temp. Heat Index Dew Point Humidity Pressure Visibility Wind Dir Wind Speed Gust Speed Precip Events Conditions
12:01 AM 57.2 °F - 57.2 °F 100% 30.04 in 10.0 mi Calm Calm - N/A   Scattered Clouds
12:10 AM 57.2 °F - 57.2 °F 100% 30.04 in 7.0 mi Calm Calm - N/A   Mostly Cloudy
12:18 AM 57.2 °F - 57.2 °F 100% 30.04 in 1.5 mi Calm Calm - N/A   Mostly Cloudy
12:21 AM 57.2 °F - 57.2 °F 100% 30.04 in 0.8 mi Calm Calm - N/A   Mist
12:30 AM 57.2 °F - 57.2 °F 100% 30.04 in 1.2 mi Calm Calm - N/A   Overcast
12:32 AM 57.2 °F - 57.2 °F 100% 30.04 in 2.5 mi Calm Calm - N/A   Overcast
12:39 AM 57.2 °F - 57.2 °F 100% 30.04 in 3.0 mi Calm Calm - N/A   Overcast
12:41 AM 57.2 °F - 57.2 °F 100% 30.04 in 1.5 mi Calm Calm - N/A   Overcast
12:43 AM 57.2 °F - 57.2 °F 100% 30.04 in 0.8 mi Calm Calm - N/A   Overcast
12:52 AM 57.0 °F - 57.0 °F 100% 30.05 in 0.2 mi Calm Calm - N/A Fog Fog
1:52 AM 57.0 °F - 55.9 °F 96% 30.04 in 0.8 mi Calm Calm - N/A   Mist
1:58 AM 57.2 °F - 55.4 °F 94% 30.04 in 1.2 mi Calm Calm - N/A   Overcast
2:06 AM 55.4 °F - 55.4 °F 100% 30.05 in 0.8 mi South 3.5 mph - N/A   Overcast
2:52 AM 57.0 °F - 55.9 °F 96% 30.04 in 0.2 mi Calm Calm - 0.01 in Fog Fog
3:52 AM 55.0 °F - 55.0 °F 100% 30.04 in 0.5 mi Calm Calm - N/A Fog Fog
4:52 AM 54.0 °F - 54.0 °F 100% 30.04 in 0.2 mi Calm Calm - N/A Fog Fog
5:52 AM 54.0 °F - 54.0 °F 100% 30.05 in 0.2 mi Calm Calm - N/A Fog Fog
6:52 AM 55.0 °F - 54.0 °F 96% 30.06 in 0.2 mi Calm Calm - N/A Fog Fog
7:52 AM 57.0 °F - 57.0 °F 100% 30.07 in 0.2 mi Calm Calm - N/A Fog Fog
8:52 AM 61.0 °F - 60.1 °F 97% 30.07 in 0.2 mi Calm Calm - N/A Fog Fog
9:07 AM 62.6 °F - 60.8 °F 94% 30.08 in 1.2 mi Calm Calm - N/A   Overcast
9:09 AM 62.6 °F - 60.8 °F 94% 30.08 in 2.0 mi Calm Calm - N/A   Overcast
9:17 AM 62.6 °F - 62.6 °F 100% 30.07 in 8.0 mi Calm Calm - N/A   Mostly Cloudy
9:31 AM 64.4 °F - 64.4 °F 100% 30.07 in 10.0 mi Calm Calm - N/A   Scattered Clouds
9:52 AM 70.0 °F - 63.0 °F 78% 30.06 in 10.0 mi Calm Calm - N/A   Clear
10:52 AM 73.9 °F - 63.0 °F 68% 30.06 in 10.0 mi SSW 6.9 mph - N/A   Clear
11:52 AM 77.0 °F - 62.1 °F 60% 30.06 in 10.0 mi SSE 8.1 mph - N/A   Mostly Cloudy
12:52 PM 80.1 °F 81.1 °F 61.0 °F 52% 30.04 in 10.0 mi SW 10.4 mph - N/A   Mostly Cloudy
1:52 PM 80.1 °F 80.6 °F 57.9 °F 47% 30.03 in 10.0 mi South 9.2 mph - N/A   Scattered Clouds
2:52 PM 81.0 °F 81.0 °F 57.0 °F 44% 30.03 in 10.0 mi South 10.4 mph - N/A   Partly Cloudy
3:52 PM 81.0 °F 81.1 °F 57.9 °F 45% 30.01 in 10.0 mi South 8.1 mph - N/A   Mostly Cloudy
4:52 PM 80.1 °F 80.6 °F 57.9 °F 47% 30.00 in 10.0 mi South 9.2 mph - N/A   Clear
5:52 PM 80.1 °F 80.7 °F 59.0 °F 48% 30.00 in 10.0 mi South 8.1 mph - N/A   Clear
6:52 PM 78.1 °F - 63.0 °F 60% 29.99 in 10.0 mi South 6.9 mph - N/A   Clear
7:52 PM 75.0 °F - 63.0 °F 66% 30.00 in 10.0 mi South 4.6 mph - N/A   Clear
8:52 PM 71.1 °F - 64.0 °F 78% 30.01 in 10.0 mi SSE 3.5 mph - N/A   Clear
9:52 PM 66.0 °F - 63.0 °F 90% 30.02 in 10.0 mi Calm Calm - N/A   Clear
10:52 PM 68.0 °F - 63.0 °F 84% 30.03 in 10.0 mi SSE 3.5 mph - N/A   Clear
11:52 PM 63.0 °F - 61.0 °F 93% 30.02 in 8.0 mi Calm Calm - N/A   Clear